METEOR 2-7 DEB, 28388

Orbit data source: Space-Track

METEOR 2-7 DEB, 28388 is space debris in LEO originally from a launch on Thu, 14 May 1981 UTC launched from the Plesetsk Missile And Space Complex (PKMTR). Debris objects in space refer to the collection of defunct objects orbiting the Earth. Examples of debris include non-operational satellites, rocket bodies, and fragments generated from explosions, collisions, or faulty payload assembly.

Loading next visibility...
Identifier
28388, 1981-043E
Orbit
LEO
Country
Flag of CISCIS
Related business
Manufacturer
Unknown
Mission
Spacecraft
Bus & Motor
Unknown
Mass
Unknown
Launch date (UTC)
1981-05-14 (44 years ago)
Launch vehicle
Unknown
Launch site
Plesetsk Missile And Space Complex (PKMTR)
Object type
Payload
Rocket body
Debris
Shape & HBR
Unknown
Radar Cross Section
Small (<0.1 m²)

Expand to show TLE details & history
Last TLE update: 17 hours ago

TLE from 17 hours ago
0 METEOR 2-7 DEB
1 28388U 81043E   25259.60351875  .00008331  00000-0  20839-2 0  9992
2 28388  81.2633 216.0890 0021092 129.4816 230.8248 14.51279795608321
Epoch: 2025-09-16T14:29Z
TLE epoch observation values (Epoch: 2025-09-16T14:29:04.02Z)
Latitude
0.00006°
Longitude
3.03081°
Altitude
733.908 km
Speed
7.483 km/s
True Right ascension
14h 24m 21s
True Declination
0° 00' 00"
Sunlit
Object was in daylight at epoch
Visualization orbit readout
Latitude
Unknown
Longitude
Unknown
Altitude
Unknown
Speed
Unknown
Apparent Right ascension
Unknown
Apparent Declination
Unknown
Sunlit
N/A
Visualization observer readout
Local Sidereal Time
00:40:43
Azimuth
Unknown
Elevation
Unknown
Doppler factor
Unknown
Orbital elements
Apogee altitude
733.558 km
Perigee altitude
703.621 km
Semi-major axis
7,096.727 km
Eccentricity
0.00211
Inclination
81.2633°
RAAN
216.089°
Arg. of periapsis
129.4816°
True anomaly
230.63774°
Mean anomaly
230.8248°
Eccentric anomaly
230.73124°
Mean motion
3.63041 °/min
Orbital period
99.16 mins
BSTAR
0.0020839
Loading maneuver chart data...
Computing Atmospheric mass density...
Loading historical data...
Loading historical data...
Loading historical data...
Loading historical data...
Loading historical data...
Loading historical data...
Loading historical data...

Documentation

Showing up to 5 results
|